This demonstration page uses our WeatherBlox Daily Observations layout. Learn more.

Left ArrowRight Arrow

Hourly Observations for October 11, 2020

Temp ( °F °C ) Dew Point ( °F °C ) Humidity (%) Winds ( mph kmh ) Pressure ( in mb ) Visibility ( mi km ) Precip ( " mm )
12:53 am 00:53 Clear 63 17.2 57 13.9 81 81 SSE 9 15 29.78 1008 10 16 0.00 0.00
1:53 am 01:53 Clear 64 17.8 59 15 84 84 SSE 10 17 29.75 1008 10 16 0.00 0.00
2:53 am 02:53 Clear 63 17.2 59 15 87 87 S 9 15 29.73 1007 10 16 0.00 0.00
3:53 am 03:53 Clear 63 17.2 59 15 87 87 S 9 15 29.72 1007 10 16 0.00 0.00
4:53 am 04:53 Clear 63 17.2 59 15 87 87 S 9 15 29.70 1006 10 16 0.00 0.00
5:53 am 05:53 Clear 65 18.3 60 15.6 84 84 S 13 20 29.68 1005 10 16 0.00 0.00
6:53 am 06:53 Clear 64 17.8 60 15.6 87 87 S 10 17 29.67 1005 10 16 0.00 0.00
7:53 am 07:53 Sunny 64 17.8 60 15.6 87 87 S 14 22 29.66 1004 10 16 0.00 0.00
8:53 am 08:53 Sunny 65 18.3 60 15.6 84 84 S 18 30 29.64 1004 10 16 0.00 0.00
9:53 am 09:53 Sunny 69 20.6 61 16.1 76 76 S 16 26 29.62 1003 10 16 0.00 0.00
10:46 am 10:46 Mostly Cloudy 73 22.8 62 16.7 69 69 S 24 39 29.55 1001 10 16 0.00 0.00
10:53 am 10:53 Mostly Cloudy 74 23.3 62 16.7 67 67 S 23 37 29.58 1002 10 16 0.00 0.00
11:53 am 11:53 Mostly Cloudy 74 23.3 61 16.1 64 64 S 18 30 29.55 1001 10 16 0.00 0.00
12:13 pm 12:13 Partly Cloudy 75 23.9 61 16.1 62 62 S 23 37 29.49 999 10 16 0.00 0.00
12:53 pm 12:53 Sunny 80 26.7 60 15.6 51 51 S 22 35 29.51 999 10 16 0.00 0.00
1:53 pm 13:53 Sunny 83 28.3 59 15 44 44 S 18 30 29.49 999 10 16 0.00 0.00
2:53 pm 14:53 Sunny 86 30 56 13.3 36 36 S 17 28 29.46 998 10 16 0.00 0.00
3:53 pm 15:53 Sunny 85 29.4 55 12.8 36 36 SSW 13 20 29.46 998 10 16 0.00 0.00
4:53 pm 16:53 Sunny 87 30.6 52 11.1 30 30 SW 12 19 29.45 997 10 16 0.00 0.00
5:53 pm 17:53 Sunny 85 29.4 51 10.6 31 31 SW 3 6 29.46 998 10 16 0.00 0.00
6:53 pm 18:53 Sunny 81 27.2 51 10.6 35 35 SSE 3 6 29.47 998 10 16 0.00 0.00
7:42 pm 19:42 Mostly Cloudy with Nearby Thunderstorms 79 26.1 51 10.6 38 38 NW 17 28 29.46 997 10 16 0.00 0.00
7:51 pm 19:51 Windy with Storms Likely 75 24 55 13 50 50 WNW 22 35 29.50 999 5 8 0.02 0.51
7:53 pm 19:53 Windy with Storms Likely 73 22.8 57 13.9 57 57 WNW 21 33 29.56 1001 5 8 0.03 0.76
8:00 pm 20:00 Windy with Storms Likely 67 19.4 54 12.2 63 63 NW 35 56 29.57 1001 6 10 0.02 0.51
8:10 pm 20:10 Mostly Cloudy with Nearby Thunderstorms 64 17.8 51 10.6 63 63 N 29 46 29.57 1001 10 16 0.02 0.51
8:24 pm 20:24 Mostly Cloudy with Light Rain 63 17.2 50 10 63 63 NNW 23 37 29.63 1003 10 16 0.02 0.51
8:53 pm 20:53 Mostly Clear 59 15 43 6.1 56 56 NW 32 52 29.71 1006 10 16 0.02 0.51
9:53 pm 21:53 Clear 56 13.3 41 5 57 57 NNW 29 46 29.74 1007 10 16 0.00 0.00
10:53 pm 22:53 Cloudy 55 12.8 42 5.6 62 62 NNW 28 44 29.84 1011 10 16 0.00 0.00
11:53 pm 23:53 Cloudy with Light Rain 52 11.1 43 6.1 72 72 N 23 37 29.84 1010 10 16 0.00 0.00

Powered by AerisWeather